Nashua, NH

8:52 AM EST on December 09, 2016 (GMT -0500)
Boire

Weather History for KASH - November, 2011

Change the Weather History Date:

Thursday, November 3, 2011

  Actual Average Record
Temperature  
Mean Temperature 42 °F -  
Max Temperature 56 °F 57 °F 81 °F (1950)
Min Temperature 29 °F 35 °F 18 °F (1980)
Degree Days  
Heating Degree Days 22    
Moisture  
Dew Point 35 °F    
Average Humidity 76    
Maximum Humidity 96    
Minimum Humidity 51    
Precipitation  
Precipitation 0.00 in - - ()
Sea Level Pressure  
Sea Level Pressure 30.04 in    
Wind  
Wind Speed 1 mph (West)    
Max Wind Speed 6 mph    
Max Gust Speed -    
Visibility 9 miles    
Events      
Averages and records for this station are not official NWS values.
T = Trace of Precipitation, MM = Missing Value Source: NWS Daily Summary

Daily Weather History Graph

Daily Weather History Graph

Search for Another Location

Airport or City:

Trip Planner

Search our weather history database for the weather conditions in past years. The results will help you decide how hot, cold, wet, or windy it might be!

Date:

Astronomy

Nov. 03, 2011 Rise Set
Actual Time 7:22 AM EDT 5:36 PM EDT
Civil Twilight 6:52 AM EDT 6:05 PM EDT
Nautical Twilight 6:19 AM EDT 6:39 PM EDT
Astronomical Twilight 5:46 AM EDT 7:12 PM EDT
Moon 2:07 PM EDT (11/3) 12:22 AM EDT (11/3)
Length of Visible Light 11h 13m
Length of Day
10h 14m
First Quarter, 60% of the Moon is Illuminated
Nov 3
First Quarter
Nov 10
Full
Nov 18
Last Quarter
Nov 25
New
Dec 2
First Quarter

Hourly Weather History & Observations

Time (EDT) Temp. Dew Point Humidity Pressure Visibility Wind Dir Wind Speed Gust Speed Precip Events Conditions
12:51 AM 31.1 °F 30.0 °F 96% 30.23 in 7.0 mi Calm Calm - N/A   Clear
1:51 AM 31.1 °F 30.0 °F 96% 30.21 in 6.0 mi Calm Calm - N/A   Clear
2:51 AM 30.0 °F 28.0 °F 92% 30.19 in 8.0 mi Calm Calm - N/A   Clear
3:51 AM 30.0 °F 28.0 °F 92% 30.17 in 5.0 mi Calm Calm - N/A   Clear
4:51 AM 29.1 °F 27.1 °F 92% 30.16 in 9.0 mi Calm Calm - N/A   Clear
5:51 AM 29.1 °F 27.1 °F 92% 30.16 in 8.0 mi Calm Calm - N/A   Clear
6:51 AM 29.1 °F 27.1 °F 92% 30.14 in 9.0 mi Calm Calm - N/A   Clear
7:51 AM 30.0 °F 28.0 °F 92% 30.13 in 6.0 mi Calm Calm - N/A   Clear
8:51 AM 32.9 °F 30.0 °F 89% 30.11 in 8.0 mi Calm Calm - N/A   Clear
9:51 AM 43.0 °F 36.9 °F 79% 30.08 in 10.0 mi Calm Calm - N/A   Clear
10:51 AM 52.0 °F 38.8 °F 61% 30.06 in 10.0 mi Variable 4.6 mph - N/A   Clear
11:51 AM 54.9 °F 39.9 °F 57% 30.05 in 9.0 mi Variable 5.8 mph - N/A   Clear
12:51 PM 56.8 °F 39.9 °F 53% 30.01 in 10.0 mi Calm Calm - N/A   Clear
1:51 PM 56.8 °F 38.8 °F 51% 29.98 in 10.0 mi Calm Calm - N/A   Clear
2:51 PM 56.8 °F 38.8 °F 51% 29.96 in 10.0 mi Variable 3.5 mph - N/A   Clear
3:51 PM 56.8 °F 39.9 °F 53% 29.94 in 10.0 mi Calm Calm - N/A   Clear
4:51 PM 54.0 °F 39.9 °F 59% 29.93 in 10.0 mi Calm Calm - N/A   Clear
5:51 PM 52.9 °F 39.9 °F 61% 29.92 in 10.0 mi Calm Calm - N/A   Clear
6:51 PM 47.8 °F 39.9 °F 74% 29.93 in 9.0 mi Calm Calm - N/A   Clear
7:51 PM 50.9 °F 39.9 °F 66% 29.92 in 10.0 mi Variable 5.8 mph - N/A   Clear
8:51 PM 50.9 °F 39.9 °F 66% 29.91 in 10.0 mi West 3.5 mph - N/A   Clear
9:51 PM 43.9 °F 38.8 °F 82% 29.91 in 10.0 mi Calm Calm - N/A   Clear
10:51 PM 41.0 °F 38.8 °F 92% 29.90 in 10.0 mi Calm Calm - N/A   Clear
11:51 PM 39.9 °F 36.9 °F 89% 29.90 in 10.0 mi Calm Calm - N/A   Clear